Montrose, CO

6:55 PM MST on December 14, 2017 (GMT -0700)
Montrose Regional

Weather History for KMTJ - February, 2011

Change the Weather History Date:

Thursday, February 24, 2011

  Actual Average Record
Temperature  
Mean Temperature 38 °F 35 °F  
Max Temperature 45 °F 47 °F 61 °F (2009)
Min Temperature 30 °F 23 °F 9 °F (2013)
Degree Days  
Heating Degree Days 28 30  
Month to date heating degree days 794  
Since 1 July heating degree days 4599  
Cooling Degree Days 0 0  
Month to date cooling degree days 0  
Year to date cooling degree days 0  
Moisture  
Dew Point 18 °F    
Average Humidity 46    
Maximum Humidity 72    
Minimum Humidity 30    
Precipitation  
Precipitation 0.00 in 0.03 in 0.10 in (1997)
Month to date precipitation 0.47  
Year to date precipitation 1.12  
Sea Level Pressure  
Sea Level Pressure 29.84 in    
Wind  
Wind Speed 8 mph (SSW)    
Max Wind Speed 23 mph    
Max Gust Speed 31 mph    
Visibility 10 miles    
Events      
T = Trace of Precipitation, MM = Missing Value Source: NWS Daily Summary

Daily Weather History Graph

Daily Weather History Graph

Search for Another Location

Airport or City:

Trip Planner

Search our weather history database for the weather conditions in past years. The results will help you decide how hot, cold, wet, or windy it might be!

Date:

Astronomy

Feb. 24, 2011 Rise Set
Actual Time 6:50 AM MST 5:59 PM MST
Civil Twilight 6:24 AM MST 6:25 PM MST
Nautical Twilight 5:53 AM MST 6:56 PM MST
Astronomical Twilight 5:22 AM MST 7:27 PM MST
Moon 12:49 AM MST (2/24) 10:34 AM MST (2/24)
Length of Visible Light 12h 01m
Length of Day
11h 08m
Waning Gibbous, 52% of the Moon is Illuminated
Feb 24
Waning Gibbous
Feb 24
Last Quarter
Mar 4
New
Mar 12
First Quarter
Mar 19
Full

Hourly Weather History & Observations

Time (MST) Temp. Windchill Dew Point Humidity Pressure Visibility Wind Dir Wind Speed Gust Speed Precip Events Conditions
12:53 AM 33.1 °F 30.0 °F 21.9 °F 64% 29.78 in 10.0 mi SE 3.5 mph - N/A   Mostly Cloudy
2:53 AM 33.1 °F 27.7 °F 24.1 °F 70% 29.78 in 10.0 mi South 5.8 mph - N/A   Mostly Cloudy
3:53 AM 30.9 °F 24.3 °F 23.0 °F 72% 29.78 in 10.0 mi SSE 6.9 mph - N/A   Mostly Cloudy
4:53 AM 34.0 °F 26.6 °F 23.0 °F 64% 29.78 in 10.0 mi SSW 9.2 mph - N/A   Overcast
5:53 AM 34.0 °F 26.0 °F 21.9 °F 61% 29.81 in 10.0 mi SSW 10.4 mph - N/A   Mostly Cloudy
6:53 AM 33.1 °F 27.7 °F 23.0 °F 66% 29.84 in 10.0 mi ENE 5.8 mph - N/A   Overcast
7:53 AM 33.1 °F 30.0 °F 21.0 °F 61% 29.87 in 10.0 mi South 3.5 mph - N/A   Scattered Clouds
8:53 AM 36.0 °F - 23.0 °F 59% 29.88 in 10.0 mi Calm Calm - N/A   Clear
9:53 AM 39.0 °F 34.0 °F 18.0 °F 43% 29.88 in 10.0 mi South 6.9 mph 17.3 mph N/A   Overcast
10:53 AM 41.0 °F 34.7 °F 16.0 °F 36% 29.89 in 10.0 mi SW 10.4 mph - N/A   Mostly Cloudy
11:53 AM 41.0 °F 36.4 °F 15.1 °F 35% 29.87 in 10.0 mi SW 6.9 mph - N/A   Mostly Cloudy
12:53 PM 45.0 °F 37.9 °F 15.1 °F 30% 29.83 in 8.0 mi SSW 16.1 mph 26.5 mph N/A   Partly Cloudy
1:53 PM 45.0 °F 36.4 °F 15.1 °F 30% 29.80 in 10.0 mi SW 23.0 mph 27.6 mph N/A   Clear
2:53 PM 45.0 °F 37.1 °F 15.1 °F 30% 29.81 in 9.0 mi WSW 19.6 mph 31.1 mph N/A   Partly Cloudy
3:53 PM 45.0 °F 36.9 °F 16.0 °F 31% 29.82 in 10.0 mi WSW 20.7 mph 26.5 mph N/A   Clear
4:53 PM 43.0 °F 35.4 °F 17.1 °F 35% 29.82 in 10.0 mi SW 16.1 mph 24.2 mph N/A   Clear
5:53 PM 41.0 °F 33.9 °F 16.0 °F 36% 29.83 in 10.0 mi SW 12.7 mph - N/A   Clear
6:53 PM 39.0 °F 32.8 °F 16.0 °F 39% 29.86 in 10.0 mi SSW 9.2 mph - N/A   Clear
7:53 PM 37.9 °F 32.1 °F 15.1 °F 39% 29.87 in 10.0 mi SSW 8.1 mph - N/A   Clear
8:53 PM 37.9 °F 32.7 °F 15.1 °F 39% 29.88 in 10.0 mi SW 6.9 mph - N/A   Mostly Cloudy
9:53 PM 37.9 °F 34.4 °F 15.1 °F 39% 29.86 in 10.0 mi SE 4.6 mph - N/A   Scattered Clouds
10:53 PM 37.0 °F 32.4 °F 17.1 °F 44% 29.86 in 10.0 mi Variable 5.8 mph - N/A   Overcast
11:53 PM 36.0 °F 30.3 °F 17.1 °F 46% 29.84 in 10.0 mi SSE 6.9 mph - N/A   Mostly Cloudy